Regional Weather Roundup
Issued by NWS

Home | Current Version | Previous Version | Graphics & Text | Print | Product List | Glossary On
Versions: 1 2 3 4 5 6 7 8 9 10 11 12 13 14 15 16 17 18 19 20 21 22 23 24 25 26 27 28 29 30 31 32 33 34 35 36 37 38 39 40 41 42 43 44 45 46 47 48 49 50
000
ASUS45 KBOU 291507
RWRCO

WEATHER ROUNDUP FOR COLORADO
NATIONAL WEATHER SERVICE DENVER/BOULDER CO
900 AM MDT SUN MAR 29 2015

NOTE: "FAIR" INDICATES FEW OR NO CLOUDS BELOW 12000 FEET WITH NO
SIGNIFICANT WEATHER AND/OR OBSTRUCTIONS TO VISIBILITY.

COZ001>005-013-030-031-291600-
...NORTHWEST COLORADO...

CITY           SKY/WX    TMP DP  RH WIND       PRES   REMARKS
CRAIG          SUNNY     40  23  50 CALM      30.35S
HAYDEN         SUNNY     37  19  48 NE6       30.36R
MEEKER         SUNNY     42  20  41 E6        30.35
MOUNT WERNER   NOT AVBL
STEAMBOAT SPGS SUNNY     39  22  49 SE6       30.36S
WALDEN         SUNNY     34  14  44 CALM      30.37R
$$

COZ006>008-011-291600-
...WEST CENTRAL VALLEYS...

CITY           SKY/WX    TMP DP  RH WIND       PRES   REMARKS
GRAND JUNCTION SUNNY     58  13  17 N13       30.26R
MONTROSE       MOSUNNY   55  22  27 N5        30.30R
EAGLE          SUNNY     43  16  33 CALM      30.39R
RIFLE          SUNNY     46  20  35 NE3       30.33R
DELTA          MOSUNNY   55  28  36 SW3       30.28R
NUCLA          MOSUNNY   50  27  40 CALM      30.32R
$$

COZ017>023-064>068-291600-
...SOUTHWEST COLORADO...

CITY           SKY/WX    TMP DP  RH WIND       PRES   REMARKS
DURANGO        SUNNY     45  25  45 CALM      30.29R
CORTEZ         SUNNY     51  25  36 E5        30.27R
PAGOSA SPRINGS SUNNY     49  22  33 CALM      30.33S
TELLURIDE      NOT AVBL
WOLF CREEK PAS SUNNY     36  12  38 N5        30.52R
$$

COZ009-010-012-014-032>034-037-058>063-291600-
...CENTRAL COLORADO...

CITY           SKY/WX    TMP DP  RH WIND       PRES   REMARKS
ASPEN          SUNNY     44  18  35 CALM      30.36R
BUENA VISTA    SUNNY     50   8  18 NW17G24   30.30F
COPPER MTN     SUNNY     30   5  34 W9        30.48R WCI  22
BERTHOUD PASS  FAIR      21  16  79 NW37G53   30.40F WCI   1
COTTONWOOD PAS SUNNY     45   1  16 W18G31    30.37R
GUNNISON       SUNNY     45  27  49 N5        30.37S
KREMMLING      SUNNY     41  18  38 CALM      30.40S
LEADVILLE      SUNNY     35   8  32 NE10      30.40R WCI  27
SALIDA         SUNNY     52  17  25 CALM      30.37S
SUNLIGHT       SUNNY     34   7  32 CALM      30.49R
WILKERSON PASS SUNNY     34  -4  19 W7G21     30.43R WCI  28
$$

COZ069>075-291600-
...SAN LUIS VALLEY/SANGRE DE CRISTO MOUNTAINS...

CITY           SKY/WX    TMP DP  RH WIND       PRES   REMARKS
ALAMOSA        SUNNY     51  28  41 N7        30.32S
LA VETA PASS   MOSUNNY   36  23  60 N6        30.44R
SAGUACHE       SUNNY     48  28  46 NW7       30.33S
$$

COZ035-036-038>040-291600-
...NORTHERN COLORADO FRONT RANGE...

CITY           SKY/WX    TMP DP  RH WIND       PRES   REMARKS
DENVER INTL AP SUNNY     47  22  37 NE16      30.32R
DMNS CITY PARK   N/A     46  17  31 E13G20    30.33R
AURORA         NOT AVBL
FRONT RANGE AP SUNNY     46  25  42 NE15      30.33R
ERIE MUNI ARPT SUNNY     49  22  35 SE9G20    30.31R
BOULDER MUN AP SUNNY     50  23  34 SE12      30.30R
CENTENNIAL     MOSUNNY   44  18  35 E10       30.33R
BROOMFIELD     SUNNY     48  21  34 SE6       30.31R
FORT COLLINS   SUNNY     48  18  29 N22G30    30.28R
LONGMONT       SUNNY     53  24  32 SE6       30.31R
$$

COZ041-046-047-076>085-087-088-291600-
...PIKES PEAK/PALMER DIVIDE AND SOUTHERN FOOTHILLS...

CITY           SKY/WX    TMP DP  RH WIND       PRES   REMARKS
COLO. SPRINGS  MOSUNNY   49  19  30 N14       30.32R
A. F. ACADEMY  NOT AVBL
ELLICOTT       SUNNY    N/A N/A N/A NE29G35   30.28R
FALCON         SUNNY     44  17  33 N20G29    30.32R
FORT CARSON    NOT AVBL
LIMON          SUNNY     44  19  36 N32G39    30.30R
MONUMENT HILL  SUNNY     37  18  44 N15       30.34R
TRINIDAD       MOSUNNY   52  26  36 NE14      30.31R
$$

COZ042>045-048>051-090-091-291600-
...NORTHEAST COLORADO...

CITY           SKY/WX    TMP DP  RH WIND       PRES   REMARKS
GREELEY ARPT   SUNNY     50  21  32 N17       30.28R
AKRON          SUNNY     47  25  42 N31G43    30.26R
BURLINGTON     SUNNY     52  18  26 N25G35    30.23R
WRAY           SUNNY     53  27  36 NW24G31   30.23R
STERLING       SUNNY     50  30  46 N25G33    30.26R
HOLYOKE        NOT AVBL
FORT MORGAN    SUNNY    N/A N/A N/A N25G32    30.31R
$$

COZ086-089-092>099-291600-
...SOUTHEAST COLORADO...

CITY           SKY/WX    TMP DP  RH WIND       PRES   REMARKS
PUEBLO         SUNNY     54  24  31 N8        30.28R
LA JUNTA       MOSUNNY   57  20  23 N22       30.26R
LAMAR          SUNNY     57  21  24 NE21G31   30.22R
SPRINGFIELD      N/A     56  35  45 N30       30.21R
$$


USA.gov is the U.S. government's official web portal to all federal, state and local government web resources and services.